Tracking 27112 objects as of 27-Mar-2023
HD Live streaming from Space Station
objects crossing your sky now

BEIDOU 3M17

Track BEIDOU 3M17 now!
BEIDOU 3M17 is classified as:


NORAD ID: 43706
Int'l Code: 2018-093A
Perigee: 21,514.5 km
Apogee: 21,555.7 km
Inclination: 54.3 °
Period: 773.2 minutes
Semi major axis: 27906 km
RCS: Unknown
Launch date: November 18, 2018
Source: People's Republic of China (PRC)
Launch site: Xichang Space Center, China (XSC)
Your satellite tracking list
Your tracking list is empty




NASA's NSSDC Master Catalog

Two Line Element Set (TLE):
1 43706U 18093A   23085.69439020  .00000017  00000-0  00000-0 0  9990
2 43706  54.2901 222.3352 0007381 280.2081  79.6711  1.86231980 29596
Source of the keplerian elements: AFSPC